Погода в Степной Шентале

Россия / Самарская область     54°18′42″N   50°19′42″E
темп.,
°C
ветер,
м/с
пор.,
м/с
влажн.,
%
обл.,
%
осадки,
мм/ч
давл.,
гПа
погр.,
м
6 марта, сб
сб601:00−12зюз34936 0.0 101146
04:00−12юз34943 0.0 101256
07:00−13зюз479644 0.0 1012121
10:00−10з489565 0.0 1014306
13:00−8зсз478370 0.0 1015647
16:00−8зсз248469 0.0 1014171
19:00−12з2289100 0.0 101421
22:00−14з1287100 0.0 101520
7 марта, вс
вс701:00−17юз22810 0.0 101320
04:00−18зюз22870 0.0 101320
07:00−18юз229544 0.0 101320
10:00−14юз249662 0.0 1013130
13:00−11юз359595 0.1 1012273
16:00−10ююз369486 0.1 1010277
19:00−11ююз5119448 0.0 1009228
22:00−10ююз6139272 0.0 1007448
8 марта, пн
пн801:00−8ю81593100 0.1 1003661
04:00−6ююз91694100 1.6 9991008
07:00−7зюз71482100 1.6 998739
10:00−9юз7138761 1.6 1000464
13:00−6юз7127897 0.0 1001767
16:00−5ююз6137967 0.0 999805
19:00−5ю3996100 0.4 997273
22:00−8зюз5138593 1.2 999367
9 марта, вт
вт901:00−12юз599443 0.0 1002171
04:00−13юз499563 0.0 1003156
07:00−14зюз499678 0.0 1004174
10:00−11зюз599384 0.1 1006406
13:00−8з5889100 0.1 1008756
16:00−8з4787100 0.2 1009795
19:00−13з349283 0.0 101050
22:00−13з359678 0.1 1012119
10 марта, ср
ср1001:00−14з339691 0.1 101262
04:00−15з369794 0.2 1012142
07:00−16з359782 0.1 1013133
10:00−15зсз479390 0.2 1014383
13:00−14зсз4689100 0.0 1015579
16:00−14зсз4690100 0.1 1015622
19:00−19з349799 0.0 101658
22:00−23зсз339970 0.1 101822